• Em Portugal
  • Lista de países
  • Para 7 dias
  • Temperatura da água
  • Mapas de satélite
  • Mapa do tempo
  • Widgets de tempo
  • user-avatar
    Iniciar Sessão

    Previsão horária em Quipungo

    Hoje, 22 Abril, Domingo

    Tempo Temperatura Precipitação Vento Pressão Humidade
    00:00 +16°C° 0 mm 0 m/s 654 mmHg 79%
    01:00 +16°C° 0 mm 0 m/s 653 mmHg 80%
    02:00 +16°C° 0 mm 0 m/s 653 mmHg 82%
    03:00 +15°C° 0 mm 0 m/s 653 mmHg 83%
    04:00 +15°C° 0 mm 0 m/s 653 mmHg 85%
    05:00 +15°C° 0 mm 0 m/s 653 mmHg 84%
    06:00 +16°C° 0 mm 0 m/s 654 mmHg 84%
    07:00 +17°C° 0 mm 0 m/s 654 mmHg 78%
    08:00 +22°C° 0 mm 1 m/s 655 mmHg 70%
    09:00 +24°C° 0 mm 1 m/s 655 mmHg 62%
    10:00 +27°C° 0 mm 2 m/s 656 mmHg 53%
    11:00 +28°C° 0 mm 3 m/s 656 mmHg 50%
    12:00 +29°C° 0 mm 3 m/s 656 mmHg 46%
    13:00 +30°C° 0 mm 4 m/s 655 mmHg 42%
    14:00 +29°C° 0 mm 3 m/s 655 mmHg 45%
    15:00 +29°C° 0 mm 2 m/s 655 mmHg 48%
    16:00 +29°C° 0 mm 2 m/s 654 mmHg 51%
    17:00 +27°C° 0 mm 2 m/s 654 mmHg 57%
    18:00 +24°C° 0 mm 1 m/s 654 mmHg 62%
    19:00 +22°C° 0 mm 1 m/s 653 mmHg 68%
    20:00 +21°C° 0 mm 1 m/s 653 mmHg 69%
    21:00 +21°C° 0 mm 1 m/s 654 mmHg 70%
    22:00 +20°C° 0 mm 1 m/s 654 mmHg 71%
    23:00 +20°C° 0 mm 1 m/s 654 mmHg 71%

    Amanhã, 23 Abril, Segunda-feira

    Tempo Temperatura Precipitação Vento Pressão Humidade
    00:00 +19°C° 0 mm 1 m/s 654 mmHg 72%
    01:00 +19°C° 0 mm 1 m/s 654 mmHg 72%
    02:00 +19°C° 0 mm 1 m/s 654 mmHg 72%
    03:00 +17°C° 0 mm 0 m/s 653 mmHg 73%
    04:00 +16°C° 0 mm 0 m/s 653 mmHg 73%
    05:00 +17°C° 0 mm 0 m/s 654 mmHg 74%
    06:00 +19°C° 0 mm 1 m/s 654 mmHg 75%
    07:00 +19°C° 0 mm 1 m/s 654 mmHg 77%
    08:00 +22°C° 0 mm 1 m/s 655 mmHg 68%
    09:00 +25°C° 0 mm 1 m/s 656 mmHg 60%
    10:00 +27°C° 0 mm 2 m/s 657 mmHg 52%
    11:00 +28°C° 0 mm 2 m/s 656 mmHg 48%
    12:00 +29°C° 0 mm 2 m/s 656 mmHg 44%
    13:00 +30°C° 0 mm 2 m/s 656 mmHg 40%
    14:00 +30°C° 0 mm 2 m/s 655 mmHg 44%
    15:00 +29°C° 0 mm 2 m/s 655 mmHg 47%
    16:00 +29°C° 0 mm 2 m/s 654 mmHg 50%
    17:00 +27°C° 0 mm 1 m/s 654 mmHg 54%
    18:00 +25°C° 0 mm 1 m/s 654 mmHg 58%
    19:00 +21°C° 0 mm 0 m/s 654 mmHg 62%
    20:00 +20°C° 0 mm 0 m/s 654 mmHg 64%
    21:00 +19°C° 0 mm 0 m/s 654 mmHg 66%
    22:00 +19°C° 0 mm 0 m/s 655 mmHg 67%
    23:00 +18°C° 0 mm 0 m/s 654 mmHg 68%

    Depois de amanhã, 24 Abril, Terça-feira

    Tempo Temperatura Precipitação Vento Pressão Humidade
    00:00 +18°C° 0 mm 0 m/s 654 mmHg 69%
    01:00 +17°C° 0 mm 0 m/s 654 mmHg 71%
    02:00 +17°C° 0 mm 0 m/s 654 mmHg 72%
    03:00 +16°C° 0 mm 0 m/s 654 mmHg 74%
    04:00 +16°C° 0 mm 0 m/s 653 mmHg 76%
    05:00 +16°C° 0 mm 0 m/s 654 mmHg 76%
    06:00 +19°C° 0 mm 1 m/s 654 mmHg 77%
    07:00 +19°C° 0 mm 1 m/s 655 mmHg 77%
    08:00 +22°C° 0 mm 1 m/s 655 mmHg 68%
    09:00 +24°C° 0 mm 1 m/s 656 mmHg 59%
    10:00 +27°C° 0 mm 2 m/s 657 mmHg 50%
    11:00 +28°C° 0 mm 2 m/s 657 mmHg 45%
    12:00 +29°C° 0 mm 2 m/s 656 mmHg 40%
    13:00 +30°C° 0 mm 2 m/s 656 mmHg 35%
    14:00 +30°C° 0 mm 2 m/s 655 mmHg 37%
    15:00 +29°C° 0 mm 2 m/s 655 mmHg 40%
    16:00 +29°C° 0 mm 1 m/s 655 mmHg 43%
    17:00 +27°C° 0 mm 1 m/s 654 mmHg 48%
    18:00 +24°C° 0 mm 1 m/s 654 mmHg 53%
    19:00 +19°C° 0 mm 0 m/s 654 mmHg 58%
    20:00 +19°C° 0 mm 0 m/s 654 mmHg 60%
    21:00 +18°C° 0 mm 0 m/s 655 mmHg 61%
    22:00 +18°C° 0 mm 0 m/s 655 mmHg 63%
    23:00 +17°C° 0 mm 0 m/s 655 mmHg 64%

    25 Abril, Quarta-feira

    Tempo Temperatura Precipitação Vento Pressão Humidade
    00:00 +17°C° 0 mm 0 m/s 654 mmHg 66%
    01:00 +16°C° 0 mm 0 m/s 654 mmHg 67%
    02:00 +16°C° 0 mm 0 m/s 654 mmHg 68%
    03:00 +16°C° 0 mm 0 m/s 654 mmHg 68%
    04:00 +16°C° 0 mm 0 m/s 653 mmHg 69%
    05:00 +16°C° 0 mm 0 m/s 654 mmHg 69%
    06:00 +16°C° 0 mm 0 m/s 654 mmHg 70%
    07:00 +17°C° 0 mm 0 m/s 655 mmHg 71%
    08:00 +21°C° 0 mm 1 m/s 656 mmHg 63%
    09:00 +24°C° 0 mm 1 m/s 656 mmHg 56%
    10:00 +27°C° 0 mm 2 m/s 657 mmHg 48%
    11:00 +28°C° 0 mm 2 m/s 657 mmHg 45%
    12:00 +29°C° 0 mm 2 m/s 656 mmHg 42%
    13:00 +30°C° 0 mm 3 m/s 656 mmHg 39%
    14:00 +29°C° 0 mm 2 m/s 655 mmHg 42%
    15:00 +29°C° 0 mm 2 m/s 655 mmHg 44%
    16:00 +29°C° 0 mm 2 m/s 654 mmHg 47%
    17:00 +26°C° 0 mm 1 m/s 654 mmHg 53%
    18:00 +24°C° 0 mm 1 m/s 654 mmHg 59%
    19:00 +19°C° 0 mm 0 m/s 654 mmHg 65%
    20:00 +19°C° 0 mm 0 m/s 654 mmHg 67%
    21:00 +18°C° 0 mm 0 m/s 654 mmHg 68%
    22:00 +18°C° 0 mm 0 m/s 654 mmHg 69%
    23:00 +17°C° 0 mm 0 m/s 654 mmHg 71%

    26 Abril, Quinta-feira

    Tempo Temperatura Precipitação Vento Pressão Humidade
    00:00 +17°C° 0 mm 0 m/s 654 mmHg 72%
    01:00 +17°C° 0 mm 0 m/s 653 mmHg 74%
    02:00 +16°C° 0 mm 0 m/s 653 mmHg 74%
    03:00 +16°C° 0 mm 0 m/s 653 mmHg 75%
    04:00 +16°C° 0 mm 0 m/s 653 mmHg 76%
    05:00 +16°C° 0 mm 0 m/s 653 mmHg 76%
    06:00 +18°C° 0 mm 1 m/s 654 mmHg 76%
    07:00 +18°C° 0 mm 1 m/s 654 mmHg 77%
    08:00 +21°C° 0 mm 1 m/s 655 mmHg 68%
    09:00 +24°C° 0 mm 2 m/s 656 mmHg 59%
    10:00 +27°C° 0 mm 2 m/s 656 mmHg 50%
    11:00 +28°C° 0 mm 2 m/s 656 mmHg 45%
    12:00 +29°C° 0 mm 2 m/s 655 mmHg 41%
    13:00 +30°C° 0 mm 2 m/s 655 mmHg 37%
    14:00 +29°C° 0 mm 2 m/s 654 mmHg 39%
    15:00 +29°C° 0 mm 2 m/s 654 mmHg 40%
    16:00 +29°C° 0 mm 1 m/s 654 mmHg 42%
    17:00 +26°C° 0 mm 1 m/s 653 mmHg 47%
    18:00 +24°C° 0 mm 1 m/s 653 mmHg 53%
    19:00 +21°C° 0 mm 1 m/s 653 mmHg 59%
    20:00 +18°C° 0 mm 0 m/s 653 mmHg 60%
    21:00 +18°C° 0 mm 0 m/s 654 mmHg 61%
    22:00 +17°C° 0 mm 0 m/s 654 mmHg 62%
    23:00 +17°C° 0 mm 0 m/s 654 mmHg 63%

    27 Abril, Sexta-feira

    Tempo Temperatura Precipitação Vento Pressão Humidade
    00:00 +16°C° 0 mm 0 m/s 653 mmHg 64%
    01:00 +16°C° 0 mm 0 m/s 653 mmHg 65%
    02:00 +16°C° 0 mm 0 m/s 653 mmHg 65%
    03:00 +16°C° 0 mm 0 m/s 653 mmHg 66%
    04:00 +15°C° 0 mm 0 m/s 652 mmHg 67%
    05:00 +16°C° 0 mm 0 m/s 653 mmHg 68%
    06:00 +16°C° 0 mm 0 m/s 653 mmHg 70%
    07:00 +16°C° 0 mm 0 m/s 654 mmHg 71%
    08:00 +21°C° 0 mm 1 m/s 655 mmHg 63%
    09:00 +24°C° 0 mm 2 m/s 655 mmHg 55%
    10:00 +27°C° 0 mm 2 m/s 656 mmHg 47%
    11:00 +28°C° 0 mm 2 m/s 656 mmHg 44%
    12:00 +29°C° 0 mm 2 m/s 655 mmHg 41%
    13:00 +29°C° 0 mm 2 m/s 654 mmHg 38%
    14:00 +29°C° 0 mm 2 m/s 654 mmHg 40%
    15:00 +29°C° 0 mm 2 m/s 654 mmHg 42%
    16:00 +29°C° 0 mm 2 m/s 653 mmHg 44%
    17:00 +26°C° 0 mm 1 m/s 653 mmHg 50%
    18:00 +24°C° 0 mm 1 m/s 653 mmHg 56%
    19:00 +22°C° 0 mm 1 m/s 653 mmHg 63%
    20:00 +21°C° 0 mm 1 m/s 653 mmHg 64%
    21:00 +18°C° 0 mm 0 m/s 653 mmHg 66%
    22:00 +18°C° 0 mm 0 m/s 653 mmHg 68%
    23:00 +17°C° 0 mm 0 m/s 653 mmHg 69%
    Mostrar mais